Location: Coopersdale
(40.3556°N, 78.9372°W)
Time: 03:33:17
(UTC+00:00)

Tiros 1 despin weight - Pass Details

Date: 21 January 2021
Orbit: 593 x 642 km, 48.2° (Epoch: 02 March)

Event Time Altitude Azimuth Distance (km) Brightness Sun altitude
Rises 19:12:53 0° 204° (SSW) 2,886 ? 25.1°
Reaches altitude 10° 19:15:31 10° 191° (S) 1,974 ? 24.9°
Maximum altitude 19:19:12 25° 136° (SE) 1,258 ? 24.5°
Drops below altitude 10° 19:22:51 10° 82° (E) 1,957 ? 24.2°
Sets 19:25:26 0° 69° (ENE) 2,856 ? 23.9°
